TimeEST,TemperatureF,Dew PointF,Humidity,Sea Level PressureIn,VisibilityMPH,Wind Direction,Wind SpeedMPH,Gust SpeedMPH,PrecipitationIn,Events,Conditions,WindDirDegrees,DateUTC
12:15 AM,35.6,33.8,93,30.05,10.0,NW,3.5,-,N/A,,Mostly Cloudy,310,2013-03-06 05:15:00
12:35 AM,37.4,35.6,93,30.06,10.0,NNW,3.5,-,N/A,,Overcast,330,2013-03-06 05:35:00
12:55 AM,39.2,37.4,93,30.04,10.0,North,5.8,-,N/A,,Overcast,10,2013-03-06 05:55:00
1:15 AM,39.2,37.4,93,30.05,10.0,North,5.8,-,N/A,,Mostly Cloudy,10,2013-03-06 06:15:00
1:35 AM,39.2,37.4,93,30.04,10.0,NE,10.4,18.4,N/A,,Overcast,40,2013-03-06 06:35:00
1:55 AM,39.2,35.6,87,30.05,10.0,NNE,6.9,-,N/A,,Overcast,20,2013-03-06 06:55:00
2:15 AM,39.2,35.6,87,30.04,10.0,NNE,6.9,-,N/A,,Mostly Cloudy,30,2013-03-06 07:15:00
2:35 AM,39.2,35.6,87,30.04,10.0,NE,6.9,16.1,N/A,,Mostly Cloudy,40,2013-03-06 07:35:00
2:55 AM,39.2,35.6,87,30.04,10.0,NE,10.4,-,N/A,,Mostly Cloudy,40,2013-03-06 07:55:00
3:15 AM,39.2,35.6,87,30.05,10.0,NNE,9.2,-,N/A,,Mostly Cloudy,30,2013-03-06 08:15:00
3:35 AM,39.2,35.6,87,30.05,10.0,NNE,6.9,-,N/A,,Overcast,30,2013-03-06 08:35:00
3:55 AM,39.2,35.6,87,30.06,10.0,NE,6.9,-,N/A,Rain,Light Rain,40,2013-03-06 08:55:00
4:15 AM,39.2,37.4,93,30.06,8.0,NE,13.8,17.3,N/A,,Light Drizzle,50,2013-03-06 09:15:00
4:35 AM,39.2,37.4,93,30.06,10.0,NE,17.3,23.0,N/A,,Overcast,50,2013-03-06 09:35:00
4:55 AM,39.2,35.6,87,30.06,9.0,ENE,15.0,20.7,N/A,,Light Drizzle,60,2013-03-06 09:55:00
5:15 AM,39.2,35.6,87,30.06,10.0,NE,16.1,20.7,N/A,,Overcast,50,2013-03-06 10:15:00
5:35 AM,39.2,35.6,87,30.06,10.0,ENE,15.0,20.7,N/A,,Overcast,60,2013-03-06 10:35:00
5:55 AM,39.2,35.6,87,30.05,10.0,ENE,13.8,19.6,N/A,,Mostly Cloudy,60,2013-03-06 10:55:00
6:15 AM,39.2,35.6,87,30.06,9.0,NE,17.3,23.0,N/A,,Light Drizzle,50,2013-03-06 11:15:00
6:35 AM,39.2,35.6,87,30.07,3.0,ENE,16.1,26.5,0.01,Rain,Light Rain,60,2013-03-06 11:35:00
6:55 AM,39.2,35.6,87,30.08,10.0,ENE,17.3,25.3,0.01,,Overcast,60,2013-03-06 11:55:00
7:15 AM,39.2,35.6,87,30.09,9.0,ENE,17.3,28.8,N/A,,Light Drizzle,60,2013-03-06 12:15:00
7:35 AM,39.2,35.6,87,30.10,4.0,ENE,13.8,27.6,N/A,,Overcast,60,2013-03-06 12:35:00
7:55 AM,39.2,35.6,87,30.10,10.0,NE,24.2,31.1,N/A,,Overcast,50,2013-03-06 12:55:00
8:15 AM,39.2,35.6,87,30.09,8.0,ENE,19.6,32.2,N/A,,Overcast,60,2013-03-06 13:15:00
8:35 AM,39.2,33.8,81,30.09,10.0,NE,23.0,32.2,N/A,,Overcast,50,2013-03-06 13:35:00
8:55 AM,39.2,33.8,81,30.10,10.0,NE,24.2,32.2,N/A,,Light Drizzle,50,2013-03-06 13:55:00
9:15 AM,39.2,32.0,75,30.10,10.0,NE,19.6,29.9,N/A,,Overcast,50,2013-03-06 14:15:00
9:35 AM,39.2,33.8,81,30.12,10.0,NE,19.6,25.3,N/A,,Mostly Cloudy,50,2013-03-06 14:35:00
9:55 AM,39.2,32.0,75,30.12,10.0,NE,24.2,32.2,N/A,,Mostly Cloudy,50,2013-03-06 14:55:00
10:15 AM,39.2,32.0,75,30.10,10.0,ENE,19.6,28.8,N/A,,Overcast,60,2013-03-06 15:15:00
10:35 AM,41.0,32.0,70,30.09,10.0,ENE,24.2,31.1,N/A,,Overcast,60,2013-03-06 15:35:00
10:55 AM,41.0,33.8,76,30.09,10.0,NE,19.6,27.6,N/A,,Overcast,50,2013-03-06 15:55:00
11:15 AM,41.0,33.8,76,30.09,9.0,NE,21.9,32.2,N/A,,Overcast,50,2013-03-06 16:15:00
11:35 AM,41.0,33.8,76,30.09,10.0,NE,17.3,28.8,N/A,,Overcast,50,2013-03-06 16:35:00
11:55 AM,39.2,33.8,81,30.09,10.0,ENE,18.4,32.2,N/A,,Overcast,60,2013-03-06 16:55:00
12:15 PM,39.2,35.6,87,30.09,8.0,NE,23.0,31.1,N/A,,Mostly Cloudy,50,2013-03-06 17:15:00
12:35 PM,39.2,35.6,87,30.08,9.0,NE,17.3,28.8,N/A,,Overcast,50,2013-03-06 17:35:00
12:55 PM,39.2,35.6,87,30.08,5.0,NE,21.9,32.2,N/A,,Overcast,50,2013-03-06 17:55:00
1:15 PM,41.0,35.6,81,30.07,10.0,NE,21.9,29.9,N/A,,Overcast,50,2013-03-06 18:15:00
1:35 PM,37.4,35.6,93,30.07,3.0,ENE,23.0,32.2,0.01,Rain,Rain,60,2013-03-06 18:35:00
1:55 PM,39.2,35.6,87,30.07,8.0,NE,25.3,33.4,0.01,,Light Drizzle,50,2013-03-06 18:55:00
2:15 PM,39.2,35.6,87,30.06,3.0,NE,21.9,31.1,N/A,Rain,Light Rain,50,2013-03-06 19:15:00
2:35 PM,39.2,35.6,87,30.06,6.0,NE,24.2,32.2,N/A,,Light Drizzle,50,2013-03-06 19:35:00
2:55 PM,39.2,35.6,87,30.07,9.0,NE,31.1,36.8,N/A,,Overcast,50,2013-03-06 19:55:00
3:15 PM,39.2,33.8,81,30.06,7.0,NE,27.6,38.0,N/A,,Light Drizzle,50,2013-03-06 20:15:00
3:35 PM,39.2,33.8,81,30.06,7.0,NE,25.3,33.4,N/A,,Light Drizzle,50,2013-03-06 20:35:00
3:55 PM,39.2,33.8,81,30.05,8.0,NE,26.5,34.5,N/A,,Light Drizzle,50,2013-03-06 20:55:00
4:15 PM,39.2,33.8,81,30.05,8.0,NE,27.6,36.8,N/A,,Overcast,50,2013-03-06 21:15:00
4:35 PM,39.2,33.8,81,30.06,9.0,NE,21.9,31.1,N/A,,Overcast,40,2013-03-06 21:35:00
4:55 PM,39.2,33.8,81,30.07,5.0,NE,24.2,34.5,N/A,,Haze,50,2013-03-06 21:55:00
5:15 PM,39.2,33.8,81,30.06,7.0,NE,24.2,36.8,N/A,,Overcast,50,2013-03-06 22:15:00
5:35 PM,39.2,33.8,81,30.06,7.0,NE,25.3,40.3,N/A,,Light Drizzle,40,2013-03-06 22:35:00
5:55 PM,39.2,33.8,81,30.06,8.0,NE,25.3,36.8,N/A,,Overcast,40,2013-03-06 22:55:00
6:15 PM,39.2,33.8,81,30.06,8.0,NE,23.0,39.1,N/A,,Overcast,40,2013-03-06 23:15:00
6:35 PM,39.2,33.8,81,30.06,5.0,ENE,26.5,35.7,N/A,,Overcast,60,2013-03-06 23:35:00
6:55 PM,39.2,33.8,81,30.06,3.0,NE,25.3,42.6,N/A,,Overcast,50,2013-03-06 23:55:00
7:15 PM,39.2,33.8,81,30.06,6.0,NE,26.5,38.0,N/A,,Overcast,50,2013-03-07 00:15:00
7:35 PM,37.4,33.8,87,30.06,4.0,NE,27.6,38.0,N/A,,Mostly Cloudy,50,2013-03-07 00:35:00
7:55 PM,37.4,33.8,87,30.06,7.0,NE,25.3,34.5,N/A,,Overcast,40,2013-03-07 00:55:00
8:15 PM,39.2,33.8,81,30.06,8.0,NNE,23.0,33.4,N/A,,Overcast,30,2013-03-07 01:15:00
8:35 PM,39.2,33.8,81,30.05,9.0,NE,19.6,33.4,N/A,,Overcast,40,2013-03-07 01:35:00
8:55 PM,39.2,33.8,81,30.05,9.0,NE,23.0,36.8,N/A,,Overcast,40,2013-03-07 01:55:00
9:15 PM,39.2,33.8,81,30.04,3.0,NE,27.6,39.1,N/A,,Overcast,40,2013-03-07 02:15:00
9:35 PM,37.4,33.8,87,30.04,4.0,NE,25.3,35.7,N/A,,Mostly Cloudy,40,2013-03-07 02:35:00
9:55 PM,39.2,32.0,75,30.04,8.0,NNE,21.9,33.4,N/A,,Overcast,30,2013-03-07 02:55:00
10:35 PM,37.4,33.8,87,30.03,4.0,NNE,18.4,35.7,N/A,,Overcast,30,2013-03-07 03:35:00
10:55 PM,37.4,33.8,87,30.03,4.0,NE,18.4,29.9,N/A,,Overcast,40,2013-03-07 03:55:00
11:15 PM,37.4,33.8,87,30.03,5.0,NNE,21.9,34.5,N/A,,Overcast,30,2013-03-07 04:15:00
11:35 PM,37.4,33.8,87,30.04,3.0,NE,24.2,35.7,N/A,,Overcast,40,2013-03-07 04:35:00
11:55 PM,37.4,33.8,87,30.03,3.0,NE,19.6,32.2,N/A,,Overcast,40,2013-03-07 04:55:00